Tracking 30986 objects as of 9-Jul-2025
HD Live streaming from Space Station
objects crossing your sky now

CZ-6A DEB

Track CZ-6A DEB now!
10-day predictions


NORAD ID: 55894
Int'l Code: 2022-151AAS
Perigee: 593.8 km
Apogee: 682.7 km
Inclination: 98.6 °
Period: 97.3 minutes
Semi major axis: 7009 km
RCS: Unknown
Launch date: November 11, 2022
Source: People's Republic of China (PRC)
Launch site: Taiyaun Space Center, China (TSC)

Note: This is SATELLITE DEBRIS
Your satellite tracking list
Your tracking list is empty




NASA's NSSDC Master Catalog

Two Line Element Set (TLE):
1 55894U 22151AAS 25190.12615665  .00011158  00000-0  14514-2 0  9994
2 55894  98.6492 241.9623 0063387 238.2739 121.2283 14.79432390135302
Source of the keplerian elements: AFSPC